• In United Kingdom
  • List of Countries
  • For 7 days
  • Water Temperature
  • Satellite Maps
  • Weather Map
  • Weather Widgets
  • user-avatar
    Login

    Hourly Weather Amar

    Today, 20 April, Friday

    Time Temperature Precipitation Wind Pressure Humidity
    00:00 +28°C° 0 mm 4 mps 755 mmHg 29%
    01:00 +27°C° 0 mm 4 mps 755 mmHg 29%
    02:00 +27°C° 0 mm 3 mps 755 mmHg 28%
    03:00 +27°C° 0 mm 3 mps 754 mmHg 28%
    04:00 +27°C° 0 mm 3 mps 755 mmHg 27%
    05:00 +27°C° 0 mm 3 mps 755 mmHg 26%
    06:00 +27°C° 0 mm 3 mps 755 mmHg 25%
    07:00 +29°C° 0 mm 3 mps 755 mmHg 22%
    08:00 +30°C° 0 mm 3 mps 755 mmHg 19%
    09:00 +33°C° 0 mm 3 mps 755 mmHg 16%
    10:00 +34°C° 0 mm 2 mps 755 mmHg 15%
    11:00 +34°C° 0 mm 2 mps 755 mmHg 14%
    12:00 +35°C° 0 mm 2 mps 755 mmHg 13%
    13:00 +35°C° 0 mm 2 mps 755 mmHg 13%
    14:00 +36°C° 0 mm 2 mps 754 mmHg 13%
    15:00 +36°C° 0 mm 2 mps 754 mmHg 12%
    16:00 +35°C° 0 mm 3 mps 754 mmHg 14%
    17:00 +34°C° 0 mm 3 mps 753 mmHg 15%
    18:00 +34°C° 0 mm 3 mps 753 mmHg 16%
    19:00 +33°C° 0 mm 4 mps 753 mmHg 18%
    20:00 +32°C° 0 mm 4 mps 753 mmHg 20%
    21:00 +32°C° 0 mm 5 mps 753 mmHg 21%
    22:00 +30°C° 0 mm 4 mps 754 mmHg 23%
    23:00 +30°C° 0 mm 4 mps 754 mmHg 25%

    Tomorrow, 21 April, Saturday

    Time Temperature Precipitation Wind Pressure Humidity
    00:00 +29°C° 0 mm 4 mps 754 mmHg 27%
    01:00 +29°C° 0 mm 4 mps 753 mmHg 29%
    02:00 +29°C° 0 mm 4 mps 753 mmHg 32%
    03:00 +28°C° 0 mm 4 mps 753 mmHg 35%
    04:00 +28°C° 0 mm 4 mps 753 mmHg 37%
    05:00 +28°C° 0 mm 4 mps 753 mmHg 39%
    06:00 +28°C° 0 mm 4 mps 754 mmHg 40%
    07:00 +29°C° 0 mm 5 mps 754 mmHg 35%
    08:00 +32°C° 0 mm 5 mps 754 mmHg 30%
    09:00 +33°C° 0 mm 6 mps 755 mmHg 26%
    10:00 +34°C° 0 mm 6 mps 754 mmHg 22%
    11:00 +36°C° 0 mm 7 mps 754 mmHg 19%
    12:00 +38°C° 0 mm 7 mps 754 mmHg 16%
    13:00 +39°C° 0 mm 7 mps 753 mmHg 16%
    14:00 +40°C° 0 mm 7 mps 752 mmHg 15%
    15:00 +40°C° 0 mm 7 mps 751 mmHg 14%
    16:00 +40°C° 0 mm 7 mps 751 mmHg 16%
    17:00 +39°C° 0 mm 8 mps 750 mmHg 17%
    18:00 +38°C° 0 mm 8 mps 750 mmHg 19%
    19:00 +37°C° 0 mm 8 mps 751 mmHg 22%
    20:00 +35°C° 0 mm 9 mps 751 mmHg 25%
    21:00 +34°C° 0 mm 9 mps 751 mmHg 28%
    22:00 +33°C° 0 mm 8 mps 751 mmHg 30%
    23:00 +33°C° 0 mm 8 mps 751 mmHg 32%

    Day after tomorrow, 22 April, Sunday

    Time Temperature Precipitation Wind Pressure Humidity
    00:00 +32°C° 0 mm 7 mps 751 mmHg 34%
    01:00 +32°C° 0 mm 7 mps 751 mmHg 36%
    02:00 +32°C° 0 mm 6 mps 751 mmHg 37%
    03:00 +30°C° 0 mm 6 mps 751 mmHg 39%
    04:00 +30°C° 0 mm 5 mps 751 mmHg 38%
    05:00 +30°C° 0 mm 5 mps 751 mmHg 36%
    06:00 +30°C° 0 mm 5 mps 752 mmHg 35%
    07:00 +33°C° 0 mm 5 mps 752 mmHg 30%
    08:00 +35°C° 0 mm 5 mps 752 mmHg 25%
    09:00 +37°C° 0 mm 5 mps 753 mmHg 20%
    10:00 +40°C° 0 mm 5 mps 752 mmHg 18%
    11:00 +42°C° 0 mm 6 mps 752 mmHg 16%
    12:00 +45°C° 0 mm 6 mps 752 mmHg 14%
    13:00 +45°C° 0 mm 6 mps 751 mmHg 14%
    14:00 +45°C° 0 mm 6 mps 751 mmHg 14%
    15:00 +45°C° 0 mm 6 mps 750 mmHg 14%
    16:00 +44°C° 0 mm 6 mps 750 mmHg 15%
    17:00 +42°C° 0 mm 6 mps 750 mmHg 16%
    18:00 +41°C° 0 mm 6 mps 750 mmHg 17%
    19:00 +40°C° 0 mm 5 mps 751 mmHg 19%
    20:00 +38°C° 0 mm 4 mps 751 mmHg 21%
    21:00 +38°C° 0 mm 3 mps 752 mmHg 22%
    22:00 +37°C° 0 mm 4 mps 751 mmHg 24%
    23:00 +36°C° 0 mm 5 mps 751 mmHg 25%

    23 April, Monday

    Time Temperature Precipitation Wind Pressure Humidity
    00:00 +36°C° 0 mm 6 mps 751 mmHg 26%
    01:00 +35°C° 0 mm 6 mps 751 mmHg 29%
    02:00 +34°C° 0 mm 6 mps 751 mmHg 32%
    03:00 +33°C° 0 mm 7 mps 750 mmHg 36%
    04:00 +33°C° 0.1 mm 6 mps 751 mmHg 38%
    05:00 +32°C° 0.1 mm 5 mps 751 mmHg 41%
    06:00 +32°C° 0.1 mm 4 mps 752 mmHg 43%
    07:00 +33°C° 0.1 mm 4 mps 752 mmHg 40%
    08:00 +34°C° 0.1 mm 4 mps 753 mmHg 37%
    09:00 +35°C° 0.1 mm 4 mps 754 mmHg 33%
    10:00 +36°C° 0.1 mm 4 mps 753 mmHg 30%
    11:00 +37°C° 0.1 mm 4 mps 753 mmHg 26%
    12:00 +40°C° 0.1 mm 4 mps 752 mmHg 22%
    13:00 +40°C° 0 mm 5 mps 752 mmHg 22%
    14:00 +40°C° 0 mm 6 mps 751 mmHg 22%
    15:00 +40°C° 0 mm 7 mps 751 mmHg 22%
    16:00 +39°C° 0 mm 6 mps 751 mmHg 23%
    17:00 +39°C° 0 mm 5 mps 751 mmHg 25%
    18:00 +37°C° 0 mm 4 mps 751 mmHg 26%
    19:00 +36°C° 0 mm 5 mps 752 mmHg 32%
    20:00 +35°C° 0 mm 5 mps 753 mmHg 37%
    21:00 +34°C° 0 mm 5 mps 754 mmHg 42%
    22:00 +33°C° 0 mm 6 mps 754 mmHg 47%
    23:00 +32°C° 0 mm 7 mps 754 mmHg 51%

    24 April, Tuesday

    Time Temperature Precipitation Wind Pressure Humidity
    00:00 +31°C° 0 mm 8 mps 754 mmHg 56%
    01:00 +31°C° 0 mm 8 mps 754 mmHg 58%
    02:00 +29°C° 0 mm 8 mps 754 mmHg 61%
    03:00 +29°C° 0 mm 8 mps 754 mmHg 63%
    04:00 +29°C° 0 mm 8 mps 754 mmHg 61%
    05:00 +29°C° 0 mm 7 mps 755 mmHg 59%
    06:00 +29°C° 0 mm 7 mps 755 mmHg 58%
    07:00 +30°C° 0 mm 7 mps 756 mmHg 54%
    08:00 +32°C° 0 mm 7 mps 756 mmHg 51%
    09:00 +33°C° 0 mm 7 mps 757 mmHg 47%
    10:00 +34°C° 0.1 mm 6 mps 757 mmHg 43%
    11:00 +34°C° 0.1 mm 5 mps 756 mmHg 40%
    12:00 +35°C° 0.1 mm 4 mps 756 mmHg 36%
    13:00 +35°C° 0.1 mm 5 mps 756 mmHg 36%
    14:00 +35°C° 0.1 mm 5 mps 755 mmHg 36%
    15:00 +35°C° 0.1 mm 6 mps 755 mmHg 36%
    16:00 +34°C° 0 mm 6 mps 755 mmHg 40%
    17:00 +33°C° 0 mm 6 mps 755 mmHg 45%
    18:00 +32°C° 0 mm 6 mps 755 mmHg 49%
    19:00 +32°C° 0 mm 6 mps 755 mmHg 50%
    20:00 +30°C° 0 mm 5 mps 756 mmHg 51%
    21:00 +30°C° 0 mm 5 mps 756 mmHg 52%
    22:00 +30°C° 0 mm 5 mps 756 mmHg 49%
    23:00 +29°C° 0 mm 5 mps 755 mmHg 46%

    25 April, Wednesday

    Time Temperature Precipitation Wind Pressure Humidity
    00:00 +29°C° 0 mm 5 mps 755 mmHg 42%
    01:00 +29°C° 0 mm 5 mps 755 mmHg 42%
    02:00 +29°C° 0 mm 5 mps 754 mmHg 42%
    03:00 +29°C° 0 mm 5 mps 754 mmHg 42%
    04:00 +29°C° 0 mm 4 mps 754 mmHg 42%
    05:00 +29°C° 0 mm 4 mps 755 mmHg 42%
    06:00 +29°C° 0 mm 3 mps 755 mmHg 43%
    07:00 +30°C° 0 mm 3 mps 755 mmHg 39%
    08:00 +31°C° 0 mm 3 mps 755 mmHg 35%
    09:00 +33°C° 0 mm 3 mps 756 mmHg 31%
    10:00 +34°C° 0 mm 3 mps 755 mmHg 29%
    11:00 +35°C° 0 mm 3 mps 755 mmHg 27%
    12:00 +36°C° 0 mm 3 mps 755 mmHg 25%
    13:00 +36°C° 0 mm 3 mps 754 mmHg 25%
    14:00 +36°C° 0 mm 3 mps 754 mmHg 25%
    15:00 +36°C° 0 mm 3 mps 753 mmHg 25%
    16:00 +36°C° 0 mm 3 mps 753 mmHg 26%
    17:00 +35°C° 0 mm 3 mps 753 mmHg 28%
    18:00 +35°C° 0 mm 3 mps 753 mmHg 30%
    19:00 +35°C° 0 mm 2 mps 753 mmHg 30%
    20:00 +34°C° 0 mm 2 mps 753 mmHg 31%
    21:00 +33°C° 0 mm 1 mps 754 mmHg 32%
    22:00 +32°C° 0 mm 2 mps 753 mmHg 33%
    23:00 +32°C° 0 mm 2 mps 753 mmHg 33%
    Show more